Regional Weather Roundup
Issued by NWS

Home | Current Version | Previous Version | Graphics & Text | Print | Product List | Glossary On
Versions: 1 2 3 4 5 6 7 8 9 10 11 12 13 14 15 16 17 18 19 20 21 22 23 24 25 26 27 28 29 30 31 32 33 34 35 36 37 38 39 40 41 42 43 44 45 46 47 48 49 50
000
ASUS43 KOAX 310710
RWRNE

WEATHER ROUNDUP FOR NEBRASKA
NATIONAL WEATHER SERVICE OMAHA NE
200 AM CDT FRI JUL 31 2015

NOTES: SATELLITE DATA IS BEING USED TO AUGMENT CLOUD COVER ABOVE
       12000 FEET.
       "FAIR" INDICATES FEW OR NO CLOUDS BELOW 12,000 FEET WITH NO
       SIGNIFICANT WEATHER AND/OR OBSTRUCTIONS TO VISIBILITY.

  * THESE STATIONS DO NOT REPORT WEATHER SUCH AS RAIN...SNOW OR FOG.

NEZ001>004-019>022-054>056-310800-
NEBRASKA PANHANDLE

CITY           SKY/WX    TMP DP  RH WIND       PRES   REMARKS
SCOTTSBLUFF    CLEAR     65  59  81 E6        30.27S
ALLIANCE       CLEAR     61  57  87 S3        30.27S
CHADRON        CLEAR     56  49  77 NW3       30.22S
KIMBALL        CLEAR     60  55  82 W7        30.31F
SIDNEY         CLEAR     56  54  93 SW3       30.30F
$$

NEZ057>060-069>072-079>082-310800-
SOUTHWEST NEBRASKA

CITY           SKY/WX    TMP DP  RH WIND       PRES   REMARKS
NORTH PLATTE   CLEAR     65  60  84 CALM      30.22S
IMPERIAL       CLEAR     62  58  86 NE7       30.23S
LEXINGTON      CLEAR     66  63  91 CALM      30.20S
MCCOOK         CLEAR     70  63  78 S5        30.20S
OGALLALA       CLEAR     65  61  88 CALM      30.24S
$$

NEZ005>010-023>029-035>040-094-310800-
NORTH CENTRAL NEBRASKA

CITY           SKY/WX    TMP DP  RH WIND       PRES   REMARKS
VALENTINE      CLEAR     60  51  72 W5        30.20S
AINSWORTH      CLEAR     66  56  71 SW3       30.20F
BROKEN BOW     CLEAR     66  62  87 CALM      30.20S
O`NEILL        CLEAR     68  65  90 CALM      30.17S
ORD            CLEAR     65  63  93 CALM      30.17R
THEDFORD       CLEAR     61  58  91 CALM      30.23F
$$

NEZ041-046>049-061>064-073>077-083>087-310800-
SOUTH CENTRAL NEBRASKA

CITY           SKY/WX    TMP DP  RH WIND       PRES   REMARKS
GRAND ISLAND   CLEAR     69  67  93 S7        30.18S
AURORA         CLEAR     71  68  92 S8        30.18R
HASTINGS       CLEAR     71  67  87 S5        30.19R
HEBRON         PTCLDY    72  66  83 S6        30.17S
HOLDREGE       CLEAR     68  64  85 S5        30.20S
KEARNEY *      CLEAR     70  64  83 SW7       30.19S
YORK           CLEAR     66  66 100 SW6       30.17S
$$

NEZ011>018-030>034-042>045-310800-
NORTHEAST NEBRASKA

CITY           SKY/WX    TMP DP  RH WIND       PRES   REMARKS
NORFOLK        CLEAR     71  66  84 SE9       30.15S
ALBION         CLEAR     71  64  79 CALM      30.16S
BLAIR          DRIZZLE   70  63  78 CALM      30.15S
COLUMBUS *     CLEAR     68  59  73 E5        30.16R
FREMONT        PTCLDY    73  63  69 CALM      30.16R
TEKAMAH        CLOUDY    72  66  81 NW6       30.13F
WAYNE          TSTM      69  67  94 CALM      30.16R
$$

NEZ050>053-065>068-078-088>093-310800-
SOUTHEAST NEBRASKA

CITY           SKY/WX    TMP DP  RH WIND       PRES   REMARKS
LINCOLN        CLEAR     70  62  76 S3        30.16R
OMAHA EPPLEY   PTCLDY    71  66  84 CALM      30.14S
BEATRICE       PTCLDY    70  63  77 CALM      30.16S
FALLS CITY     PTCLDY    69  64  84 S6        30.15S
NEBRASKA CITY  CLEAR     69  60  74 SW3       30.16S
PLATTSMOUTH    PTCLDY    68  62  81 S6        30.15F
$$

NEZ044-045-051>053-067-310800-
OMAHA AREA

CITY           SKY/WX    TMP DP  RH WIND       PRES   REMARKS
OMAHA EPPLEY   PTCLDY    71  66  84 CALM      30.14S
BLAIR          DRIZZLE   70  63  78 CALM      30.15S
FREMONT        PTCLDY    73  63  69 CALM      30.16R
MILLARD        PTCLDY    72  63  72 CALM      30.15R
OFFUTT AFB     PTCLDY    68  65  88 CALM      30.14R
PLATTSMOUTH    PTCLDY    68  62  81 S6        30.15F
WAHOO          FAIR      68  63  83 CALM      30.15F
$$


USA.gov is the U.S. government's official web portal to all federal, state and local government web resources and services.